TITAN 3C TRANSTAGE DEB, 38703

Orbit data source: Space-Track

TITAN 3C TRANSTAGE DEB, 38703 is space debris in GEO originally from a launch on Thu, 26 Sep 1968 UTC launched from the Air Force Eastern Test Range (AFETR). Debris objects in space refer to the collection of defunct objects orbiting the Earth. Examples of debris include non-operational satellites, rocket bodies, and fragments generated from explosions, collisions, or faulty payload assembly.

Not visible in the next 10 days
Identifier
38703, 1968-081AD
Orbit
GEO
Country
Flag of USUS
Related business
Manufacturer
Unknown
Mission
Spacecraft
Bus & Motor
Unknown
Mass
Unknown
Launch date (UTC)
1968-09-26 (58 years ago)
Launch vehicle
Unknown
Launch site
Air Force Eastern Test Range (AFETR)
Object type
Payload
Rocket body
Debris
Shape & HBR
Unknown shape, 1.1 m
Radar Cross Section
Medium (>0.1 m² and <1 m²)

Expand to show TLE details & history
Last TLE update: 1 day ago

TLE from 1 day ago
0 TITAN 3C TRANSTAGE DEB
1 38703U 68081AD  26257.32951226 -.00000120  00000-0  00000-0 0  9990
2 38703   3.0852  77.4356 0239117  75.1956 287.8672  1.05420465 48402
Epoch: 2026-09-14T07:54Z
TLE epoch observation values (Epoch: 2026-09-14T07:54:29.859Z)
Latitude
-0.00001°
Longitude
-34.08984°
Altitude
34,126.351 km
Speed
3.148 km/s
True Right ascension
05h 11m 23s
True Declination
0° 00' 00"
Sunlit
Object was in daylight at epoch
Visualization orbit readout
Latitude
Unknown
Longitude
Unknown
Altitude
Unknown
Speed
Unknown
Apparent Right ascension
Unknown
Apparent Declination
Unknown
Sunlit
N/A
Visualization observer readout
Local Sidereal Time
03:23:35
Azimuth
Unknown
Elevation
Unknown
Doppler factor
Unknown
Orbital elements
Apogee altitude
35,378.559 km
Perigee altitude
33,428.247 km
Semi-major axis
40,781.54 km
Eccentricity
0.02391
Inclination
3.0852°
RAAN
77.4356°
Arg. of periapsis
75.1956°
True anomaly
285.23607°
Mean anomaly
287.8672°
Eccentric anomaly
286.55395°
Mean motion
0.26354 °/min
Orbital period
1,366.01 mins
BSTAR
0
Loading maneuver chart data...
Computing Atmospheric mass density...

Documentation

Showing up to 5 results
|